Погода в Дилижане

Армения     40°44′30″N   44°52′19″E
темп.,
°C
ветер,
м/с
пор.,
м/с
влажн.,
%
обл.,
%
осадки,
мм/ч
давл.,
гПа
погр.,
м
21 апреля, ср
ср2101:00+9ю227498 0.3 101716
04:00+8з1180100 0.3 101710
07:00+8ю337718 0.0 101745
10:00+16ююз4124421 0.0 10141781
13:00+18юз8143826 0.0 10132416
16:00+12ююз396950 6.9 1014592
19:00+12ю376861 0.3 1014250
22:00+9ю227989 0.7 101722
22 апреля, чт
чт2201:00+8ю2280100 0.4 101720
04:00+8ююз2279100 0.5 101719
07:00+8ю22764 0.1 101728
10:00+16юз412441 0.1 10152406
13:00+15юз494798 0.1 10151847
16:00+12з4766100 0.3 1015643
19:00+12ссз1271100 0.1 101497
22:00+8всв118750 0.2 1017149
23 апреля, пт
пт2301:00+7с008415 0.0 101698
04:00+5сз128851 0.0 101741
07:00+5с119317 0.0 101884
10:00+9с236545 0.0 1018978
13:00+13зсз27394 0.7 10152258
16:00+14сз35357 0.8 10162291
19:00+9св337411 0.1 1018229
22:00+5вюв129454 0.1 1020124
24 апреля, сб
сб2401:00+4вюв22955 0.0 102129
04:00+3в11794 0.0 102010
07:00+3всв00753 0.0 102124
10:00+8ссв2162100 0.0 1019631
13:00+12ссв335461 0.0 10171108
16:00+13ссв325829 0.1 1016978
19:00+9всв327917 0.1 1018357
22:00+5юв119621 0.1 102115
25 апреля, вс
вс2501:00+4юв11785 0.0 102111
04:00+4юв117298 0.0 102010
07:00+5ююв1174100 0.0 102011
10:00+13вюв2352100 0.0 1017771
13:00+17ююз363624 0.0 10141562
16:00+18ююз693064 0.0 10122248
19:00+14ююз135616 0.0 101346
22:00+10ююз225330 0.0 101414